GEFSSE_prec_meanprecacc_312.txt.gz
Total_Precipitation_Accumulation
2.39 2.59 3.25 2.98 2.75 2.67 2.59 2.49 2.29 2.27 2.37 2.51 2.53 2.54 2.61 2.65 2.74 2.87 3.00 3.06 3.26 3.48 3.50 3.47 3.32 3.34 3.31 3.28 3.00 2.58 2.28 2.22 2.08 1.91 1.73 1.71 1.77 1.98 2.38 2.55 2.35 1.76 1.73
2.02 2.39 2.95 2.80 2.61 2.53 2.44 2.37 2.23 2.18 2.35 2.50 2.57 2.54 2.62 2.59 2.64 2.68 2.84 3.19 3.47 3.54 3.52 3.24 3.09 3.17 3.18 3.16 2.80 2.48 2.27 2.21 2.10 2.09 1.94 1.67 1.87 2.24 2.60 2.65 2.63 1.88 1.78
1.70 2.08 2.24 2.49 2.40 2.36 2.32 2.39 2.63 2.62 2.62 2.57 2.55 2.47 2.50 2.52 2.59 2.68 2.96 3.22 3.42 3.26 3.15 3.04 3.03 2.95 2.88 2.78 2.55 2.35 2.24 2.11 2.16 2.35 2.48 1.72 1.54 2.24 2.53 2.56 2.37 1.81 1.63
1.56 1.84 1.93 2.23 2.18 2.01 2.14 2.40 2.71 2.86 2.82 2.74 2.60 2.43 2.38 2.51 2.65 2.80 2.80 2.91 3.00 2.81 2.68 2.80 2.95 2.83 2.71 2.44 2.30 2.30 2.27 2.24 2.44 2.79 2.80 1.95 1.49 1.88 2.25 2.20 1.97 1.68 1.51
1.52 1.77 2.02 2.11 1.96 1.85 1.99 2.28 2.54 2.72 2.73 2.69 2.54 2.43 2.49 2.45 2.50 2.57 2.62 2.73 2.74 2.75 2.64 2.60 2.73 2.80 2.64 2.36 2.30 2.36 2.33 2.37 2.70 2.76 2.35 2.24 2.14 2.11 2.15 2.07 1.89 1.70 1.58
1.20 1.47 1.78 2.00 1.92 1.90 2.11 2.25 2.32 2.39 2.42 2.40 2.39 2.45 2.44 2.35 2.41 2.38 2.37 2.40 2.60 2.63 2.39 2.33 2.58 2.80 2.70 2.44 2.29 2.49 2.65 2.75 2.66 2.14 2.00 2.01 2.09 2.23 2.16 2.21 2.14 1.91 1.78
1.04 1.25 1.53 1.91 1.87 1.84 1.94 2.07 2.19 2.37 2.38 2.30 2.29 2.21 2.24 2.30 2.28 2.20 2.06 2.11 2.31 2.33 2.18 2.17 2.38 2.58 2.61 2.51 2.44 2.74 2.85 2.92 2.43 1.97 1.88 2.09 1.94 1.87 2.04 2.28 2.45 2.25 1.93
0.87 1.06 1.27 1.67 1.76 1.72 1.74 1.90 2.17 2.31 2.33 2.22 2.03 1.92 1.96 1.99 1.94 1.88 1.85 2.03 2.07 1.98 1.99 2.03 2.25 2.20 2.38 2.63 2.75 3.04 2.94 2.54 1.94 1.82 1.73 1.81 1.52 1.62 1.95 2.19 2.35 2.22 1.94
0.77 0.85 1.11 1.38 1.58 1.64 1.77 1.91 2.01 1.97 1.89 1.81 1.67 1.72 1.85 1.92 1.83 1.78 1.83 1.95 1.91 1.92 2.00 2.15 2.32 2.16 2.35 2.72 2.87 2.97 2.81 2.35 1.82 1.85 1.66 1.82 1.72 1.87 2.17 2.26 2.21 2.20 1.97
0.98 0.99 1.13 1.25 1.37 1.50 1.64 1.80 1.86 1.86 1.73 1.66 1.64 1.69 1.77 1.86 1.87 1.78 1.79 1.97 1.88 1.90 1.96 2.20 2.31 2.21 2.50 2.74 2.84 2.79 2.71 2.21 1.69 1.70 1.74 1.60 1.75 2.12 2.47 2.48 2.38 2.33 2.19
1.31 1.28 1.21 1.21 1.23 1.35 1.46 1.62 1.82 1.82 1.76 1.71 1.77 1.82 1.83 1.84 1.70 1.73 1.86 2.20 2.15 2.18 2.21 2.35 2.49 2.71 2.79 2.65 2.76 2.76 2.52 2.11 2.02 1.93 1.90 1.66 1.88 2.36 2.67 2.62 2.57 2.60 2.44
1.47 1.51 1.50 1.43 1.24 1.27 1.35 1.62 1.72 1.51 1.63 1.77 1.92 1.80 1.78 1.89 1.93 1.82 2.20 2.51 2.64 2.77 2.81 2.90 3.07 2.92 2.68 2.69 3.19 3.19 2.38 2.25 2.09 2.09 2.23 2.06 2.25 2.78 3.04 2.81 2.65 2.72 2.61
1.65 1.45 1.56 1.77 1.67 1.59 1.70 1.58 1.58 1.62 1.82 1.86 1.74 1.72 1.90 1.70 1.62 1.84 2.14 2.48 2.74 3.01 3.20 3.39 3.54 3.18 3.15 3.39 3.59 3.23 2.50 2.19 2.15 2.02 2.30 2.38 2.54 3.07 3.47 3.22 2.97 2.95 2.88
1.85 1.58 1.55 1.72 1.94 1.91 1.78 1.67 1.59 1.54 1.66 1.75 1.87 1.82 1.96 1.94 1.95 2.16 2.61 2.80 3.02 3.11 3.55 3.61 4.01 3.80 3.47 3.24 3.29 3.12 2.75 2.56 2.32 2.41 2.66 2.30 2.46 3.05 3.66 3.66 3.47 3.27 3.10
2.11 1.90 1.80 1.72 1.91 1.97 1.97 1.86 1.66 1.69 1.71 1.90 2.04 2.03 2.11 2.22 2.51 2.81 2.94 3.29 3.22 3.23 3.51 3.96 3.98 4.22 4.22 4.06 3.80 3.42 3.29 3.01 2.67 2.73 2.81 2.69 2.61 2.90 3.52 4.00 3.91 3.65 3.31
2.49 2.35 2.09 1.86 1.85 1.97 2.05 2.09 2.09 2.00 2.19 2.25 2.35 2.40 2.55 2.77 3.08 3.41 3.47 3.62 3.46 3.43 3.84 4.18 4.25 4.78 4.68 4.41 3.90 3.62 3.40 3.25 2.94 2.79 2.95 3.06 2.70 2.64 3.13 3.94 4.27 4.09 3.86
2.70 2.75 2.62 2.41 2.37 2.47 2.73 2.72 2.48 2.56 2.63 2.74 2.88 2.92 2.96 3.11 3.54 3.83 3.80 3.72 3.74 3.76 4.10 4.36 4.49 4.60 4.32 4.10 3.95 3.78 3.61 3.36 2.93 2.91 2.92 3.10 2.89 2.68 3.01 3.48 4.00 4.17 4.30
2.77 3.16 3.25 3.02 3.14 3.29 3.53 3.54 3.22 3.17 3.14 3.17 3.14 3.16 3.15 3.30 3.60 4.11 3.90 3.72 4.09 3.97 4.20 4.78 4.80 4.67 4.60 4.32 4.09 3.76 3.55 3.40 2.89 2.80 2.81 3.03 3.34 2.87 2.98 3.39 3.67 3.83 4.44
2.91 3.43 3.69 3.80 3.94 3.97 4.05 4.05 3.94 3.78 3.64 3.38 3.37 3.35 3.23 3.25 3.42 3.85 3.74 3.84 3.93 4.26 4.41 4.12 4.76 4.84 4.67 4.36 3.70 3.50 3.14 3.02 2.93 2.65 2.81 2.87 3.23 3.06 3.06 3.11 3.43 3.65 4.37
3.26 3.69 4.23 4.51 4.64 4.41 4.33 4.30 4.11 3.83 3.66 3.47 3.42 3.39 3.19 3.23 3.30 3.81 3.66 3.68 3.76 4.20 4.33 4.30 4.73 4.67 4.36 4.30 3.43 3.22 3.05 2.64 2.59 2.66 2.53 2.76 2.98 2.64 2.82 3.10 3.54 3.19 3.59
3.76 4.05 4.37 4.87 5.13 4.98 4.99 4.90 4.74 4.42 4.22 3.84 3.37 3.02 2.96 2.98 3.23 3.74 3.43 3.82 3.73 3.92 4.03 3.98 4.31 4.43 4.06 4.12 4.09 3.62 2.88 2.42 2.38 2.36 2.41 2.65 2.66 2.72 3.29 3.81 3.95 3.85 3.69
3.57 4.09 4.44 4.49 4.45 4.28 4.52 4.92 5.15 5.06 4.52 3.89 3.51 3.35 2.98 2.92 3.06 3.26 3.55 3.47 3.51 3.72 3.71 3.77 4.11 4.08 3.66 3.82 4.09 4.17 3.40 3.04 2.51 1.95 2.28 2.45 2.55 2.90 3.13 3.33 3.73 4.10 4.24
3.00 3.54 3.69 3.59 3.54 3.43 3.56 3.97 4.28 4.54 4.29 3.97 3.64 3.36 2.97 2.86 2.85 2.97 3.23 3.26 3.26 3.12 3.36 3.61 3.59 3.64 3.59 3.57 3.64 4.08 3.77 3.34 2.83 2.24 2.10 2.19 2.54 2.83 2.83 3.07 3.14 3.48 3.80
2.15 2.40 2.61 2.84 2.96 2.97 3.01 3.24 3.47 3.72 3.76 3.70 3.63 3.29 2.92 2.63 2.60 2.72 2.81 2.81 2.87 2.82 3.12 2.87 2.97 3.32 3.58 3.45 3.38 3.33 3.39 3.53 3.41 2.75 2.25 2.14 2.40 2.57 2.58 2.55 2.81 3.23 3.37
1.89 2.15 2.37 2.66 2.83 2.90 2.88 2.97 3.18 3.50 3.54 3.35 3.22 3.27 3.04 2.76 2.50 2.44 2.61 2.68 2.69 2.61 2.72 2.78 3.13 3.09 3.23 3.25 3.26 3.26 3.36 3.38 3.21 3.03 2.66 2.53 2.48 2.19 2.18 2.34 2.59 2.93 3.12
1.73 1.98 2.21 2.46 2.47 2.58 2.64 2.64 2.70 2.91 3.06 2.92 2.76 2.77 2.65 2.54 2.43 2.35 2.42 2.61 2.52 2.48 2.59 2.70 2.83 2.83 2.91 3.02 3.02 3.02 3.27 3.15 3.09 3.20 2.87 2.69 2.59 2.25 2.19 2.26 2.39 2.66 2.80

GEFSSE_prec_meanprecacc_318.txt.gz
Total_Precipitation_Accumulation
2.43 2.65 3.36 3.17 2.91 2.79 2.69 2.59 2.41 2.38 2.47 2.62 2.62 2.63 2.68 2.74 2.85 2.96 3.09 3.14 3.34 3.62 3.71 3.69 3.44 3.44 3.42 3.42 3.13 2.69 2.36 2.29 2.15 1.96 1.79 1.77 1.82 2.01 2.42 2.60 2.40 1.80 1.77
2.06 2.45 3.05 2.95 2.76 2.66 2.55 2.48 2.34 2.28 2.48 2.64 2.67 2.63 2.71 2.69 2.78 2.79 2.94 3.29 3.57 3.68 3.68 3.37 3.18 3.28 3.30 3.30 2.95 2.60 2.35 2.30 2.18 2.17 2.02 1.74 1.93 2.29 2.65 2.72 2.69 1.91 1.83
1.73 2.13 2.34 2.62 2.53 2.47 2.43 2.50 2.75 2.73 2.71 2.64 2.63 2.56 2.59 2.61 2.69 2.78 3.03 3.28 3.48 3.36 3.28 3.14 3.12 3.05 2.97 2.90 2.69 2.46 2.33 2.20 2.25 2.42 2.54 1.77 1.60 2.31 2.60 2.62 2.42 1.83 1.65
1.58 1.89 2.02 2.35 2.30 2.12 2.28 2.52 2.81 2.94 2.91 2.81 2.67 2.51 2.47 2.59 2.75 2.88 2.86 2.96 3.05 2.89 2.77 2.87 3.04 2.96 2.82 2.58 2.44 2.41 2.36 2.32 2.52 2.84 2.84 1.98 1.54 1.95 2.34 2.28 2.01 1.70 1.52
1.55 1.83 2.13 2.24 2.08 1.98 2.11 2.41 2.67 2.82 2.81 2.76 2.60 2.51 2.59 2.56 2.60 2.66 2.67 2.78 2.80 2.82 2.73 2.68 2.82 2.93 2.79 2.54 2.44 2.47 2.44 2.46 2.78 2.81 2.40 2.27 2.18 2.17 2.22 2.14 1.94 1.73 1.60
1.25 1.55 1.91 2.16 2.04 2.00 2.24 2.39 2.44 2.50 2.48 2.44 2.44 2.51 2.52 2.45 2.51 2.48 2.44 2.48 2.69 2.70 2.46 2.40 2.67 2.95 2.89 2.60 2.44 2.63 2.74 2.83 2.72 2.19 2.03 2.03 2.12 2.27 2.21 2.27 2.20 1.96 1.82
1.12 1.37 1.70 2.07 2.01 1.98 2.08 2.20 2.31 2.46 2.44 2.36 2.34 2.26 2.33 2.43 2.44 2.34 2.16 2.20 2.40 2.40 2.24 2.25 2.54 2.77 2.78 2.66 2.60 2.92 2.95 2.97 2.46 2.00 1.91 2.12 1.99 1.92 2.10 2.33 2.50 2.28 1.96
0.95 1.19 1.44 1.84 1.93 1.86 1.87 2.00 2.25 2.38 2.40 2.29 2.10 2.00 2.09 2.19 2.15 2.07 1.99 2.15 2.16 2.06 2.07 2.17 2.46 2.35 2.49 2.75 2.89 3.19 3.07 2.59 1.96 1.85 1.77 1.85 1.55 1.66 2.00 2.24 2.38 2.25 1.97
0.82 0.95 1.25 1.54 1.77 1.82 1.91 2.00 2.08 2.03 1.95 1.87 1.77 1.85 2.02 2.11 1.99 1.91 1.92 2.04 1.99 2.02 2.12 2.31 2.47 2.25 2.44 2.82 3.00 3.11 2.93 2.40 1.85 1.88 1.68 1.85 1.75 1.92 2.21 2.30 2.24 2.23 2.00
1.04 1.07 1.25 1.39 1.53 1.65 1.76 1.91 1.96 1.94 1.79 1.70 1.69 1.76 1.84 1.94 1.94 1.84 1.84 2.03 1.96 1.98 2.04 2.28 2.40 2.29 2.58 2.84 2.97 2.92 2.82 2.27 1.73 1.73 1.77 1.63 1.79 2.18 2.52 2.52 2.42 2.35 2.22
1.35 1.35 1.32 1.32 1.34 1.47 1.55 1.71 1.91 1.90 1.83 1.77 1.84 1.89 1.90 1.92 1.74 1.76 1.89 2.24 2.21 2.26 2.26 2.41 2.55 2.76 2.85 2.72 2.88 2.87 2.59 2.14 2.04 1.95 1.92 1.69 1.93 2.43 2.74 2.68 2.62 2.64 2.48
1.49 1.54 1.56 1.48 1.31 1.37 1.44 1.70 1.80 1.57 1.69 1.82 1.98 1.86 1.85 1.96 1.97 1.85 2.24 2.55 2.69 2.85 2.87 2.96 3.16 3.00 2.73 2.77 3.28 3.25 2.43 2.28 2.11 2.10 2.24 2.09 2.31 2.85 3.12 2.89 2.72 2.78 2.66
1.67 1.47 1.58 1.80 1.72 1.68 1.78 1.64 1.63 1.68 1.88 1.91 1.78 1.76 1.95 1.74 1.65 1.87 2.19 2.53 2.78 3.06 3.26 3.47 3.61 3.27 3.21 3.45 3.65 3.28 2.54 2.22 2.17 2.03 2.32 2.41 2.60 3.14 3.55 3.30 3.06 3.03 2.94
1.88 1.59 1.57 1.76 2.00 1.97 1.85 1.73 1.65 1.62 1.73 1.81 1.93 1.85 2.00 1.98 1.98 2.19 2.65 2.83 3.06 3.16 3.61 3.69 4.08 3.86 3.52 3.28 3.33 3.17 2.78 2.60 2.35 2.43 2.70 2.34 2.51 3.10 3.72 3.73 3.54 3.34 3.15
2.14 1.93 1.84 1.76 1.96 2.02 2.04 1.93 1.72 1.79 1.79 1.97 2.09 2.07 2.14 2.25 2.54 2.84 2.98 3.33 3.26 3.28 3.59 4.03 4.04 4.31 4.29 4.12 3.83 3.45 3.31 3.04 2.70 2.76 2.85 2.72 2.65 2.94 3.58 4.06 3.98 3.72 3.37
2.52 2.37 2.11 1.89 1.91 2.03 2.12 2.17 2.16 2.09 2.28 2.32 2.40 2.43 2.58 2.79 3.12 3.46 3.53 3.69 3.51 3.50 3.93 4.24 4.30 4.85 4.75 4.47 3.95 3.65 3.42 3.28 2.97 2.82 2.98 3.10 2.74 2.68 3.18 3.99 4.33 4.17 3.94
2.72 2.78 2.65 2.45 2.43 2.54 2.81 2.80 2.57 2.64 2.70 2.80 2.93 2.96 2.99 3.13 3.57 3.89 3.88 3.80 3.81 3.82 4.18 4.45 4.56 4.66 4.37 4.16 4.00 3.82 3.64 3.39 2.96 2.94 2.96 3.15 2.97 2.75 3.06 3.54 4.05 4.25 4.39
2.81 3.20 3.30 3.06 3.19 3.35 3.61 3.63 3.32 3.26 3.20 3.22 3.17 3.19 3.18 3.32 3.64 4.16 3.96 3.79 4.17 4.03 4.29 4.89 4.90 4.73 4.66 4.38 4.15 3.82 3.60 3.44 2.92 2.83 2.85 3.08 3.41 2.94 3.05 3.45 3.73 3.89 4.50
2.97 3.48 3.73 3.84 4.00 4.02 4.13 4.16 4.03 3.85 3.69 3.41 3.40 3.38 3.26 3.29 3.46 3.91 3.79 3.90 3.99 4.33 4.50 4.21 4.86 4.94 4.75 4.44 3.78 3.57 3.19 3.06 2.98 2.69 2.85 2.93 3.30 3.14 3.13 3.18 3.50 3.70 4.43
3.28 3.71 4.25 4.55 4.69 4.46 4.40 4.40 4.18 3.87 3.69 3.49 3.45 3.43 3.23 3.27 3.34 3.86 3.72 3.74 3.83 4.29 4.43 4.39 4.83 4.77 4.44 4.37 3.46 3.25 3.08 2.67 2.65 2.71 2.58 2.80 3.04 2.71 2.91 3.20 3.64 3.26 3.64
3.77 4.06 4.38 4.89 5.18 5.05 5.07 4.96 4.79 4.46 4.26 3.86 3.41 3.05 3.00 3.02 3.28 3.80 3.49 3.90 3.80 4.01 4.13 4.07 4.42 4.54 4.14 4.17 4.13 3.65 2.91 2.45 2.41 2.39 2.44 2.67 2.69 2.79 3.39 3.91 4.06 3.94 3.76
3.58 4.10 4.46 4.51 4.49 4.36 4.58 4.97 5.19 5.11 4.57 3.94 3.54 3.39 3.01 2.96 3.12 3.32 3.62 3.56 3.61 3.82 3.82 3.86 4.22 4.18 3.74 3.87 4.14 4.21 3.44 3.08 2.53 1.97 2.30 2.46 2.57 2.94 3.19 3.40 3.81 4.19 4.32
3.01 3.55 3.71 3.61 3.57 3.46 3.61 4.02 4.31 4.57 4.33 4.03 3.71 3.44 3.03 2.92 2.93 3.07 3.32 3.35 3.38 3.24 3.47 3.69 3.67 3.72 3.66 3.62 3.69 4.14 3.82 3.39 2.86 2.26 2.11 2.21 2.56 2.85 2.87 3.11 3.21 3.55 3.86
2.16 2.41 2.63 2.86 2.98 2.99 3.05 3.27 3.49 3.76 3.80 3.76 3.69 3.36 3.01 2.71 2.68 2.83 2.93 2.93 2.99 2.93 3.21 2.93 3.03 3.39 3.65 3.51 3.43 3.38 3.44 3.57 3.45 2.77 2.27 2.16 2.42 2.60 2.61 2.58 2.87 3.30 3.43
1.90 2.15 2.37 2.67 2.84 2.92 2.90 2.98 3.20 3.52 3.57 3.40 3.27 3.33 3.10 2.81 2.54 2.49 2.69 2.77 2.76 2.68 2.77 2.82 3.16 3.13 3.27 3.30 3.31 3.30 3.41 3.43 3.26 3.08 2.70 2.57 2.51 2.23 2.22 2.39 2.65 2.99 3.18
1.73 1.98 2.22 2.46 2.48 2.59 2.65 2.65 2.72 2.93 3.10 2.97 2.82 2.83 2.70 2.58 2.46 2.37 2.45 2.64 2.55 2.51 2.63 2.74 2.86 2.86 2.95 3.06 3.06 3.07 3.33 3.21 3.14 3.26 2.92 2.74 2.65 2.30 2.24 2.32 2.47 2.74 2.87

GEFSSE_prec_meanprecacc_324.txt.gz
Total_Precipitation_Accumulation
2.57 2.75 3.45 3.26 3.01 2.87 2.75 2.64 2.46 2.42 2.52 2.68 2.68 2.68 2.73 2.80 2.91 3.03 3.17 3.21 3.42 3.71 3.86 3.87 3.66 3.64 3.58 3.55 3.24 2.77 2.44 2.37 2.22 2.03 1.87 1.83 1.85 2.04 2.46 2.66 2.47 1.85 1.80
2.17 2.54 3.13 3.03 2.86 2.74 2.60 2.53 2.39 2.33 2.53 2.73 2.77 2.70 2.77 2.77 2.85 2.87 3.02 3.35 3.64 3.79 3.84 3.54 3.38 3.44 3.44 3.42 3.05 2.70 2.43 2.38 2.27 2.26 2.09 1.79 1.97 2.33 2.70 2.78 2.77 1.95 1.85
1.87 2.25 2.43 2.70 2.61 2.53 2.48 2.56 2.80 2.79 2.77 2.72 2.71 2.64 2.68 2.70 2.78 2.85 3.08 3.35 3.56 3.50 3.43 3.28 3.24 3.16 3.09 3.04 2.82 2.57 2.42 2.28 2.32 2.49 2.63 1.84 1.65 2.35 2.65 2.67 2.46 1.86 1.68
1.71 2.01 2.11 2.44 2.37 2.18 2.34 2.60 2.88 3.01 2.97 2.88 2.75 2.60 2.56 2.68 2.84 2.95 2.93 3.04 3.16 3.01 2.85 2.96 3.13 3.05 2.92 2.70 2.57 2.51 2.45 2.38 2.58 2.93 2.95 2.06 1.59 2.00 2.38 2.32 2.06 1.74 1.56
1.63 1.94 2.22 2.31 2.14 2.04 2.18 2.47 2.75 2.89 2.87 2.82 2.67 2.59 2.67 2.63 2.67 2.73 2.74 2.86 2.87 2.90 2.82 2.75 2.90 3.00 2.87 2.66 2.56 2.56 2.50 2.52 2.86 2.91 2.50 2.36 2.25 2.21 2.25 2.19 1.98 1.76 1.63
1.32 1.65 2.00 2.22 2.10 2.08 2.31 2.45 2.51 2.55 2.54 2.50 2.51 2.60 2.60 2.54 2.58 2.54 2.51 2.57 2.76 2.77 2.53 2.46 2.73 3.00 2.97 2.72 2.55 2.71 2.80 2.88 2.78 2.26 2.12 2.12 2.18 2.29 2.23 2.31 2.23 1.98 1.84
1.19 1.47 1.78 2.14 2.06 2.05 2.17 2.30 2.40 2.52 2.50 2.42 2.42 2.35 2.41 2.50 2.52 2.42 2.25 2.30 2.48 2.47 2.29 2.29 2.59 2.83 2.88 2.74 2.68 3.02 3.04 3.02 2.52 2.09 1.99 2.19 2.03 1.94 2.12 2.36 2.52 2.30 1.99
1.03 1.29 1.53 1.91 1.98 1.92 1.95 2.10 2.34 2.48 2.49 2.38 2.21 2.10 2.19 2.29 2.25 2.17 2.09 2.24 2.24 2.12 2.13 2.22 2.52 2.42 2.57 2.82 2.95 3.28 3.18 2.66 2.00 1.91 1.82 1.89 1.57 1.68 2.02 2.25 2.40 2.27 1.99
0.94 1.08 1.36 1.63 1.85 1.90 2.02 2.10 2.15 2.12 2.06 2.01 1.90 1.97 2.11 2.18 2.06 1.98 2.00 2.13 2.06 2.09 2.18 2.36 2.52 2.32 2.51 2.88 3.06 3.17 3.04 2.51 1.92 1.92 1.71 1.89 1.77 1.93 2.23 2.32 2.27 2.26 2.03
1.19 1.23 1.39 1.50 1.62 1.75 1.87 1.99 2.02 1.99 1.83 1.75 1.74 1.80 1.88 1.98 1.98 1.88 1.89 2.09 2.02 2.04 2.09 2.34 2.44 2.33 2.63 2.91 3.06 3.03 2.91 2.31 1.76 1.76 1.81 1.67 1.82 2.20 2.54 2.54 2.45 2.40 2.25
1.51 1.51 1.47 1.42 1.43 1.59 1.65 1.76 1.96 1.95 1.86 1.81 1.89 1.93 1.96 2.00 1.81 1.82 1.94 2.28 2.24 2.30 2.31 2.46 2.59 2.80 2.92 2.84 2.99 2.95 2.63 2.16 2.06 1.99 1.97 1.73 1.96 2.45 2.77 2.71 2.65 2.67 2.51
1.57 1.63 1.66 1.59 1.41 1.50 1.54 1.77 1.86 1.62 1.73 1.89 2.06 1.94 1.96 2.07 2.06 1.89 2.27 2.58 2.71 2.89 2.92 3.02 3.21 3.07 2.81 2.86 3.34 3.30 2.47 2.30 2.12 2.14 2.32 2.12 2.33 2.87 3.14 2.91 2.75 2.81 2.69
1.72 1.53 1.68 1.91 1.83 1.80 1.89 1.71 1.69 1.73 1.93 1.98 1.86 1.82 2.03 1.80 1.69 1.91 2.23 2.55 2.83 3.11 3.31 3.53 3.68 3.33 3.27 3.54 3.73 3.34 2.58 2.24 2.19 2.05 2.36 2.45 2.64 3.16 3.57 3.32 3.08 3.05 2.97
1.93 1.64 1.63 1.84 2.10 2.10 1.95 1.81 1.71 1.67 1.78 1.87 1.99 1.90 2.05 2.03 2.03 2.24 2.71 2.88 3.11 3.22 3.69 3.76 4.15 3.93 3.58 3.37 3.42 3.23 2.82 2.64 2.38 2.45 2.75 2.37 2.54 3.12 3.74 3.75 3.56 3.36 3.18
2.20 1.97 1.87 1.83 2.06 2.15 2.16 2.03 1.81 1.86 1.84 2.01 2.15 2.11 2.18 2.30 2.60 2.90 3.03 3.39 3.32 3.34 3.65 4.08 4.11 4.39 4.36 4.20 3.91 3.51 3.35 3.07 2.72 2.79 2.89 2.75 2.66 2.95 3.60 4.09 4.01 3.74 3.39
2.56 2.40 2.15 1.96 1.99 2.14 2.22 2.26 2.25 2.18 2.35 2.37 2.44 2.47 2.62 2.84 3.17 3.52 3.59 3.75 3.56 3.55 3.98 4.30 4.36 4.94 4.83 4.57 4.03 3.71 3.47 3.31 3.00 2.85 3.04 3.17 2.79 2.71 3.20 4.02 4.37 4.20 3.98
2.75 2.81 2.69 2.50 2.49 2.64 2.91 2.87 2.65 2.71 2.74 2.84 2.98 3.04 3.04 3.17 3.63 3.95 3.93 3.85 3.85 3.86 4.24 4.50 4.62 4.74 4.45 4.26 4.09 3.88 3.69 3.42 2.99 2.98 3.01 3.22 3.05 2.83 3.12 3.57 4.10 4.30 4.44
2.84 3.22 3.33 3.09 3.25 3.43 3.70 3.72 3.40 3.33 3.25 3.26 3.21 3.25 3.21 3.36 3.68 4.22 4.01 3.85 4.24 4.09 4.36 4.96 4.98 4.84 4.77 4.50 4.25 3.87 3.64 3.47 2.96 2.89 2.90 3.13 3.47 3.01 3.12 3.49 3.77 3.94 4.55
2.99 3.50 3.76 3.88 4.06 4.12 4.23 4.26 4.11 3.92 3.75 3.48 3.48 3.46 3.32 3.35 3.52 3.97 3.86 3.98 4.06 4.40 4.58 4.28 4.95 5.04 4.87 4.57 3.87 3.64 3.25 3.11 3.03 2.74 2.90 2.97 3.37 3.20 3.20 3.26 3.55 3.74 4.48
3.30 3.74 4.29 4.60 4.75 4.55 4.50 4.50 4.29 3.95 3.77 3.56 3.52 3.50 3.28 3.33 3.40 3.93 3.79 3.81 3.89 4.34 4.51 4.46 4.92 4.87 4.56 4.48 3.52 3.30 3.12 2.71 2.70 2.76 2.62 2.83 3.11 2.79 3.03 3.30 3.72 3.31 3.69
3.78 4.08 4.41 4.92 5.22 5.12 5.15 5.05 4.88 4.54 4.33 3.92 3.46 3.10 3.04 3.05 3.31 3.86 3.55 3.97 3.88 4.08 4.20 4.15 4.50 4.63 4.26 4.26 4.20 3.71 2.95 2.49 2.46 2.44 2.48 2.71 2.74 2.85 3.48 4.01 4.15 4.03 3.83
3.59 4.12 4.47 4.53 4.52 4.41 4.64 5.04 5.25 5.17 4.63 3.99 3.59 3.45 3.07 3.00 3.15 3.35 3.68 3.61 3.68 3.91 3.91 3.95 4.30 4.28 3.84 3.97 4.23 4.30 3.51 3.15 2.60 2.00 2.33 2.48 2.60 3.00 3.24 3.44 3.88 4.27 4.42
3.03 3.57 3.73 3.63 3.60 3.49 3.64 4.05 4.35 4.64 4.42 4.12 3.80 3.53 3.11 2.97 2.97 3.11 3.36 3.39 3.45 3.32 3.56 3.79 3.76 3.80 3.75 3.71 3.76 4.21 3.90 3.46 2.91 2.31 2.14 2.23 2.59 2.89 2.92 3.15 3.25 3.60 3.92
2.17 2.43 2.64 2.87 3.00 3.01 3.06 3.29 3.53 3.82 3.90 3.90 3.85 3.50 3.11 2.80 2.74 2.87 2.97 2.99 3.06 3.00 3.29 3.00 3.10 3.45 3.72 3.58 3.49 3.43 3.49 3.63 3.50 2.82 2.31 2.20 2.47 2.64 2.64 2.61 2.90 3.35 3.47
1.91 2.16 2.38 2.68 2.86 2.94 2.91 3.00 3.22 3.56 3.62 3.45 3.33 3.39 3.16 2.86 2.58 2.52 2.72 2.81 2.80 2.72 2.81 2.86 3.21 3.18 3.32 3.34 3.36 3.34 3.45 3.49 3.33 3.14 2.75 2.61 2.56 2.27 2.25 2.42 2.70 3.05 3.24
1.74 1.99 2.23 2.48 2.50 2.61 2.67 2.67 2.75 2.98 3.14 3.01 2.86 2.88 2.74 2.61 2.50 2.40 2.47 2.66 2.57 2.54 2.66 2.78 2.91 2.90 3.00 3.11 3.11 3.12 3.38 3.28 3.21 3.32 2.97 2.79 2.69 2.34 2.28 2.36 2.52 2.80 2.95

GEFSSE_prec_meanprecacc_330.txt.gz
Total_Precipitation_Accumulation
2.66 2.82 3.55 3.31 3.05 2.91 2.80 2.69 2.50 2.45 2.56 2.71 2.70 2.71 2.77 2.84 2.95 3.06 3.20 3.24 3.46 3.75 3.91 3.96 3.76 3.79 3.72 3.63 3.29 2.82 2.47 2.42 2.26 2.07 1.91 1.87 1.89 2.09 2.52 2.71 2.51 1.87 1.82
2.28 2.61 3.21 3.07 2.89 2.76 2.64 2.57 2.43 2.36 2.56 2.76 2.81 2.75 2.82 2.81 2.88 2.90 3.05 3.38 3.68 3.84 3.93 3.68 3.53 3.55 3.52 3.48 3.11 2.74 2.47 2.41 2.30 2.29 2.13 1.83 2.01 2.39 2.75 2.82 2.80 1.97 1.87
1.98 2.32 2.47 2.74 2.64 2.56 2.51 2.59 2.84 2.83 2.81 2.76 2.77 2.68 2.72 2.73 2.80 2.87 3.11 3.38 3.62 3.59 3.60 3.45 3.34 3.22 3.15 3.08 2.88 2.61 2.45 2.31 2.36 2.53 2.65 1.85 1.67 2.39 2.68 2.72 2.51 1.88 1.70
1.79 2.06 2.15 2.48 2.41 2.21 2.38 2.63 2.92 3.05 3.01 2.93 2.79 2.64 2.59 2.71 2.87 2.98 2.95 3.08 3.23 3.13 2.98 3.05 3.19 3.09 2.95 2.72 2.61 2.55 2.48 2.42 2.63 2.97 2.97 2.07 1.60 2.02 2.42 2.37 2.09 1.76 1.57
1.71 1.98 2.27 2.35 2.17 2.07 2.21 2.51 2.79 2.95 2.92 2.86 2.72 2.63 2.70 2.66 2.71 2.78 2.77 2.89 2.91 2.95 2.86 2.80 2.93 3.03 2.90 2.69 2.59 2.59 2.53 2.56 2.90 2.95 2.52 2.37 2.26 2.23 2.27 2.21 2.01 1.79 1.64
1.38 1.69 2.04 2.25 2.14 2.11 2.35 2.49 2.55 2.60 2.59 2.54 2.54 2.62 2.63 2.57 2.61 2.59 2.54 2.59 2.78 2.80 2.55 2.49 2.76 3.03 2.99 2.75 2.57 2.74 2.83 2.93 2.83 2.30 2.13 2.13 2.19 2.31 2.25 2.33 2.26 2.01 1.85
1.24 1.50 1.81 2.18 2.12 2.11 2.23 2.35 2.43 2.56 2.54 2.45 2.43 2.38 2.43 2.53 2.55 2.46 2.27 2.33 2.51 2.49 2.31 2.32 2.62 2.86 2.89 2.76 2.70 3.04 3.07 3.06 2.55 2.12 2.01 2.21 2.04 1.97 2.14 2.38 2.54 2.32 2.00
1.06 1.32 1.58 1.95 2.03 1.98 2.03 2.18 2.40 2.52 2.52 2.41 2.23 2.13 2.22 2.33 2.30 2.21 2.12 2.28 2.27 2.14 2.16 2.24 2.55 2.45 2.60 2.85 2.98 3.31 3.21 2.69 2.04 1.99 1.86 1.91 1.59 1.71 2.06 2.29 2.42 2.29 2.00
0.97 1.11 1.39 1.68 1.90 1.95 2.08 2.18 2.21 2.18 2.11 2.05 1.93 2.00 2.15 2.24 2.12 2.02 2.05 2.16 2.08 2.11 2.21 2.38 2.54 2.35 2.55 2.92 3.10 3.22 3.08 2.56 1.97 1.96 1.74 1.91 1.80 1.97 2.28 2.36 2.29 2.28 2.05
1.23 1.27 1.43 1.53 1.66 1.79 1.93 2.06 2.07 2.03 1.88 1.79 1.78 1.85 1.93 2.04 2.03 1.93 1.92 2.12 2.04 2.07 2.11 2.35 2.46 2.36 2.68 2.97 3.13 3.09 2.94 2.35 1.79 1.78 1.83 1.70 1.88 2.26 2.59 2.58 2.47 2.42 2.27
1.56 1.57 1.50 1.44 1.45 1.63 1.70 1.80 2.00 1.99 1.91 1.85 1.93 1.98 1.99 2.02 1.85 1.86 1.95 2.31 2.26 2.31 2.33 2.49 2.62 2.85 2.98 2.93 3.10 3.01 2.66 2.18 2.07 2.00 2.00 1.77 2.03 2.53 2.82 2.75 2.67 2.70 2.54
1.63 1.69 1.72 1.64 1.45 1.55 1.59 1.82 1.90 1.65 1.76 1.91 2.08 1.96 1.98 2.08 2.07 1.91 2.30 2.61 2.73 2.92 2.96 3.08 3.28 3.16 2.90 3.00 3.45 3.34 2.49 2.31 2.14 2.15 2.35 2.15 2.37 2.92 3.19 2.96 2.79 2.86 2.74
1.77 1.58 1.74 1.96 1.89 1.88 1.97 1.81 1.78 1.79 1.96 2.00 1.87 1.83 2.04 1.82 1.71 1.92 2.25 2.58 2.86 3.15 3.34 3.56 3.71 3.36 3.34 3.61 3.76 3.36 2.60 2.27 2.22 2.06 2.39 2.48 2.68 3.21 3.61 3.38 3.15 3.10 3.02
2.00 1.68 1.68 1.90 2.17 2.18 2.03 1.91 1.78 1.74 1.89 1.91 2.04 1.92 2.07 2.05 2.05 2.27 2.74 2.90 3.14 3.25 3.71 3.78 4.18 3.96 3.62 3.40 3.44 3.27 2.86 2.67 2.42 2.48 2.78 2.42 2.61 3.17 3.78 3.80 3.61 3.41 3.23
2.25 2.02 1.92 1.90 2.17 2.23 2.22 2.08 1.85 1.92 1.92 2.07 2.22 2.14 2.20 2.32 2.62 2.92 3.06 3.42 3.35 3.37 3.67 4.10 4.13 4.40 4.38 4.23 3.93 3.54 3.39 3.11 2.75 2.82 2.93 2.79 2.72 3.00 3.64 4.15 4.08 3.81 3.48
2.59 2.45 2.20 2.05 2.09 2.20 2.26 2.29 2.28 2.20 2.38 2.41 2.47 2.49 2.63 2.86 3.19 3.54 3.61 3.77 3.59 3.58 4.02 4.32 4.39 4.96 4.85 4.61 4.07 3.74 3.50 3.33 3.02 2.87 3.07 3.22 2.85 2.76 3.25 4.08 4.44 4.30 4.06
2.77 2.85 2.76 2.57 2.55 2.68 2.95 2.92 2.68 2.74 2.77 2.87 3.01 3.07 3.06 3.20 3.66 3.98 3.96 3.87 3.88 3.89 4.26 4.52 4.66 4.81 4.53 4.31 4.13 3.91 3.72 3.45 3.01 3.02 3.06 3.28 3.09 2.86 3.16 3.61 4.14 4.36 4.52
2.85 3.26 3.38 3.14 3.29 3.49 3.76 3.76 3.46 3.39 3.30 3.29 3.24 3.28 3.24 3.39 3.71 4.26 4.05 3.89 4.27 4.11 4.38 4.98 5.02 4.90 4.83 4.55 4.29 3.91 3.68 3.51 3.00 2.93 2.97 3.19 3.53 3.06 3.16 3.53 3.81 4.00 4.63
3.00 3.52 3.79 3.92 4.09 4.18 4.30 4.31 4.16 3.97 3.80 3.51 3.51 3.49 3.34 3.39 3.57 4.03 3.95 4.07 4.12 4.43 4.61 4.30 5.00 5.09 4.91 4.60 3.90 3.67 3.28 3.14 3.09 2.80 2.97 3.03 3.42 3.26 3.27 3.32 3.60 3.79 4.55
3.31 3.75 4.31 4.62 4.77 4.58 4.54 4.54 4.31 3.98 3.80 3.59 3.54 3.52 3.31 3.37 3.44 3.96 3.83 3.86 3.94 4.39 4.54 4.49 4.96 4.93 4.60 4.51 3.54 3.33 3.15 2.73 2.74 2.82 2.66 2.88 3.17 2.85 3.10 3.38 3.79 3.37 3.74
3.79 4.09 4.42 4.93 5.24 5.15 5.20 5.08 4.89 4.56 4.35 3.93 3.47 3.12 3.08 3.09 3.35 3.89 3.59 4.00 3.91 4.11 4.23 4.19 4.55 4.69 4.31 4.31 4.23 3.74 2.98 2.52 2.49 2.48 2.53 2.75 2.78 2.90 3.55 4.12 4.26 4.11 3.87
3.60 4.12 4.49 4.54 4.54 4.44 4.69 5.07 5.27 5.18 4.64 4.00 3.61 3.48 3.09 3.03 3.21 3.44 3.76 3.68 3.73 3.95 3.95 3.99 4.35 4.33 3.89 4.02 4.27 4.33 3.54 3.17 2.62 2.03 2.36 2.51 2.64 3.06 3.35 3.56 3.97 4.34 4.47
3.03 3.57 3.73 3.64 3.62 3.53 3.67 4.06 4.37 4.66 4.43 4.13 3.81 3.55 3.14 3.01 3.03 3.21 3.47 3.49 3.55 3.39 3.62 3.83 3.80 3.85 3.80 3.75 3.79 4.26 3.94 3.50 2.93 2.33 2.16 2.27 2.66 2.98 3.04 3.28 3.33 3.66 3.97
2.18 2.43 2.65 2.88 3.03 3.05 3.08 3.29 3.53 3.83 3.91 3.91 3.86 3.52 3.14 2.84 2.81 2.96 3.08 3.08 3.14 3.06 3.35 3.05 3.13 3.48 3.75 3.62 3.52 3.46 3.54 3.68 3.56 2.87 2.35 2.23 2.53 2.70 2.69 2.65 2.95 3.41 3.53
1.92 2.17 2.39 2.71 2.89 2.96 2.92 3.00 3.23 3.57 3.62 3.46 3.34 3.41 3.19 2.90 2.62 2.55 2.75 2.85 2.84 2.76 2.85 2.90 3.24 3.20 3.35 3.37 3.38 3.38 3.50 3.54 3.37 3.19 2.79 2.64 2.58 2.29 2.27 2.45 2.73 3.09 3.28
1.78 2.01 2.26 2.51 2.52 2.62 2.68 2.69 2.76 2.98 3.15 3.02 2.88 2.91 2.76 2.63 2.51 2.41 2.48 2.68 2.59 2.57 2.69 2.81 2.93 2.93 3.03 3.14 3.13 3.14 3.42 3.32 3.24 3.36 3.00 2.82 2.71 2.35 2.29 2.38 2.55 2.85 3.01

GEFSSE_prec_meanprecacc_336.txt.gz
Total_Precipitation_Accumulation
2.72 2.90 3.67 3.43 3.14 2.96 2.86 2.76 2.56 2.51 2.61 2.77 2.76 2.77 2.83 2.89 3.00 3.12 3.27 3.31 3.52 3.83 4.00 4.07 3.85 3.91 3.86 3.72 3.36 2.88 2.54 2.49 2.36 2.13 1.96 1.91 1.92 2.13 2.56 2.74 2.53 1.90 1.86
2.32 2.67 3.30 3.17 2.97 2.81 2.69 2.62 2.47 2.42 2.61 2.82 2.86 2.81 2.88 2.86 2.92 2.94 3.09 3.42 3.74 3.93 4.01 3.78 3.64 3.68 3.63 3.54 3.15 2.79 2.53 2.48 2.37 2.35 2.20 1.87 2.06 2.43 2.79 2.84 2.82 1.99 1.91
2.01 2.37 2.55 2.83 2.71 2.61 2.56 2.63 2.88 2.87 2.87 2.83 2.83 2.75 2.78 2.78 2.83 2.90 3.14 3.43 3.67 3.66 3.69 3.54 3.42 3.30 3.21 3.13 2.91 2.65 2.51 2.37 2.39 2.57 2.70 1.87 1.70 2.43 2.72 2.75 2.53 1.91 1.73
1.83 2.11 2.22 2.56 2.47 2.25 2.41 2.67 2.96 3.09 3.06 2.98 2.85 2.70 2.65 2.76 2.91 3.02 2.98 3.13 3.29 3.21 3.08 3.14 3.26 3.13 2.99 2.76 2.65 2.59 2.54 2.47 2.66 3.00 2.98 2.08 1.61 2.04 2.46 2.40 2.12 1.79 1.61
1.76 2.04 2.37 2.43 2.23 2.12 2.26 2.56 2.83 2.99 2.97 2.92 2.79 2.68 2.75 2.70 2.75 2.82 2.79 2.93 2.99 3.04 2.96 2.86 2.99 3.07 2.93 2.72 2.62 2.62 2.57 2.62 2.95 2.98 2.53 2.38 2.27 2.25 2.30 2.25 2.04 1.82 1.69
1.43 1.75 2.15 2.34 2.21 2.17 2.42 2.56 2.61 2.66 2.65 2.62 2.61 2.66 2.66 2.59 2.64 2.61 2.55 2.61 2.83 2.88 2.63 2.54 2.81 3.07 3.01 2.77 2.60 2.77 2.87 2.97 2.85 2.31 2.14 2.14 2.20 2.34 2.28 2.36 2.29 2.05 1.89
1.27 1.56 1.93 2.31 2.20 2.19 2.30 2.41 2.50 2.61 2.59 2.51 2.49 2.41 2.46 2.56 2.58 2.48 2.29 2.35 2.54 2.53 2.35 2.36 2.66 2.89 2.92 2.79 2.73 3.08 3.11 3.09 2.56 2.12 2.01 2.21 2.06 2.01 2.18 2.42 2.60 2.37 2.03
1.11 1.39 1.67 2.07 2.13 2.06 2.10 2.23 2.44 2.57 2.56 2.45 2.27 2.16 2.25 2.36 2.33 2.24 2.16 2.31 2.29 2.17 2.19 2.28 2.60 2.50 2.64 2.89 3.02 3.34 3.26 2.72 2.05 2.00 1.86 1.92 1.62 1.74 2.10 2.35 2.49 2.34 2.04
1.02 1.16 1.45 1.74 1.96 2.02 2.18 2.26 2.26 2.22 2.15 2.08 1.97 2.03 2.18 2.27 2.16 2.06 2.09 2.21 2.12 2.15 2.25 2.43 2.60 2.40 2.61 2.99 3.15 3.27 3.12 2.59 1.98 1.97 1.75 1.92 1.83 2.01 2.32 2.40 2.34 2.33 2.09
1.26 1.29 1.46 1.58 1.71 1.84 2.00 2.15 2.15 2.10 1.93 1.83 1.82 1.89 1.98 2.09 2.08 1.98 1.96 2.15 2.08 2.12 2.16 2.40 2.50 2.41 2.75 3.04 3.17 3.14 2.98 2.39 1.81 1.79 1.84 1.72 1.91 2.31 2.64 2.63 2.51 2.45 2.31
1.59 1.61 1.54 1.48 1.49 1.68 1.78 1.87 2.09 2.09 2.00 1.91 2.00 2.05 2.05 2.06 1.88 1.88 1.98 2.34 2.29 2.36 2.39 2.54 2.68 2.91 3.05 2.97 3.14 3.06 2.69 2.20 2.10 2.03 2.03 1.79 2.06 2.59 2.87 2.80 2.72 2.74 2.59
1.67 1.73 1.77 1.69 1.50 1.61 1.66 1.89 1.99 1.73 1.83 1.96 2.13 2.00 2.01 2.10 2.09 1.94 2.33 2.64 2.77 2.97 3.04 3.16 3.35 3.24 2.97 3.03 3.49 3.37 2.50 2.34 2.16 2.18 2.38 2.18 2.40 2.97 3.26 3.04 2.90 2.96 2.85
1.80 1.62 1.77 2.01 1.95 1.93 2.01 1.85 1.82 1.84 2.01 2.04 1.89 1.84 2.06 1.84 1.73 1.96 2.29 2.60 2.88 3.19 3.39 3.62 3.75 3.42 3.41 3.65 3.78 3.38 2.62 2.29 2.24 2.08 2.40 2.51 2.72 3.27 3.69 3.47 3.27 3.24 3.14
2.03 1.71 1.71 1.94 2.22 2.21 2.06 1.93 1.80 1.78 1.92 1.94 2.05 1.94 2.08 2.07 2.07 2.29 2.78 2.92 3.15 3.27 3.75 3.83 4.23 4.01 3.67 3.42 3.46 3.28 2.87 2.69 2.43 2.49 2.79 2.44 2.63 3.21 3.85 3.90 3.74 3.54 3.32
2.29 2.04 1.94 1.92 2.20 2.26 2.27 2.11 1.87 1.94 1.94 2.08 2.24 2.16 2.22 2.33 2.63 2.93 3.08 3.44 3.36 3.39 3.72 4.16 4.18 4.46 4.41 4.26 3.95 3.56 3.41 3.13 2.76 2.83 2.94 2.81 2.74 3.03 3.69 4.22 4.15 3.88 3.55
2.61 2.48 2.23 2.10 2.15 2.25 2.32 2.33 2.30 2.23 2.40 2.43 2.50 2.51 2.65 2.88 3.21 3.56 3.64 3.80 3.61 3.61 4.07 4.38 4.45 5.01 4.88 4.65 4.10 3.77 3.52 3.35 3.04 2.90 3.10 3.23 2.86 2.78 3.28 4.12 4.50 4.37 4.16
2.80 2.88 2.80 2.64 2.62 2.74 3.01 2.98 2.72 2.77 2.80 2.90 3.04 3.09 3.08 3.23 3.68 4.01 4.00 3.92 3.91 3.92 4.30 4.58 4.71 4.85 4.56 4.34 4.15 3.93 3.73 3.46 3.03 3.05 3.09 3.29 3.10 2.89 3.20 3.65 4.19 4.42 4.59
2.90 3.29 3.42 3.19 3.35 3.54 3.81 3.81 3.51 3.44 3.35 3.33 3.27 3.30 3.27 3.42 3.73 4.28 4.09 3.94 4.30 4.14 4.41 5.01 5.06 4.95 4.87 4.59 4.31 3.92 3.70 3.53 3.02 2.97 3.00 3.21 3.55 3.08 3.19 3.58 3.88 4.08 4.70
3.04 3.55 3.81 3.95 4.15 4.21 4.33 4.34 4.20 4.02 3.85 3.53 3.53 3.52 3.36 3.42 3.59 4.06 3.98 4.10 4.14 4.46 4.64 4.33 5.03 5.13 4.96 4.63 3.93 3.71 3.32 3.17 3.12 2.84 3.00 3.07 3.46 3.29 3.30 3.37 3.66 3.87 4.64
3.34 3.78 4.33 4.64 4.82 4.61 4.56 4.56 4.34 4.02 3.83 3.61 3.56 3.55 3.34 3.41 3.48 4.01 3.87 3.88 3.96 4.42 4.57 4.52 4.99 4.98 4.64 4.55 3.58 3.37 3.18 2.76 2.77 2.84 2.68 2.91 3.20 2.89 3.14 3.42 3.83 3.42 3.80
3.81 4.11 4.44 4.94 5.26 5.18 5.22 5.10 4.91 4.58 4.36 3.95 3.50 3.15 3.10 3.12 3.38 3.92 3.61 4.02 3.93 4.13 4.25 4.21 4.58 4.72 4.34 4.34 4.26 3.76 3.00 2.54 2.50 2.49 2.55 2.76 2.79 2.93 3.58 4.17 4.31 4.14 3.89
3.62 4.15 4.51 4.55 4.56 4.47 4.71 5.09 5.29 5.21 4.66 4.02 3.63 3.50 3.11 3.05 3.23 3.47 3.79 3.70 3.75 3.97 3.97 4.01 4.37 4.37 3.92 4.05 4.29 4.34 3.55 3.18 2.63 2.05 2.38 2.53 2.66 3.08 3.37 3.60 4.01 4.36 4.49
3.06 3.60 3.76 3.66 3.64 3.56 3.70 4.10 4.40 4.70 4.46 4.15 3.83 3.57 3.15 3.02 3.05 3.23 3.50 3.51 3.57 3.40 3.64 3.87 3.84 3.90 3.83 3.77 3.81 4.27 3.95 3.50 2.94 2.34 2.18 2.30 2.68 2.99 3.05 3.30 3.35 3.69 4.01
2.21 2.45 2.67 2.90 3.05 3.08 3.12 3.32 3.56 3.86 3.94 3.93 3.88 3.54 3.15 2.85 2.83 2.99 3.10 3.10 3.15 3.07 3.36 3.08 3.17 3.52 3.78 3.64 3.54 3.48 3.56 3.69 3.56 2.88 2.36 2.24 2.55 2.71 2.70 2.67 2.97 3.43 3.57
1.95 2.20 2.42 2.73 2.92 2.99 2.95 3.02 3.25 3.59 3.65 3.48 3.37 3.43 3.21 2.91 2.64 2.58 2.78 2.87 2.86 2.77 2.87 2.92 3.26 3.22 3.37 3.39 3.41 3.40 3.52 3.56 3.38 3.20 2.80 2.66 2.59 2.30 2.28 2.46 2.75 3.12 3.32
1.82 2.05 2.29 2.53 2.55 2.66 2.72 2.72 2.78 3.00 3.16 3.04 2.90 2.92 2.78 2.65 2.54 2.44 2.51 2.70 2.61 2.59 2.70 2.82 2.95 2.95 3.04 3.15 3.15 3.16 3.45 3.36 3.26 3.37 3.01 2.82 2.71 2.35 2.30 2.39 2.56 2.86 3.03

GEFSSE_prec_meanprecacc_342.txt.gz
Total_Precipitation_Accumulation
2.76 2.96 3.75 3.55 3.28 3.08 2.97 2.88 2.70 2.63 2.72 2.87 2.86 2.88 2.93 2.98 3.07 3.19 3.34 3.38 3.59 3.92 4.11 4.17 3.92 3.96 3.93 3.81 3.44 2.96 2.61 2.59 2.49 2.22 2.04 1.97 1.97 2.18 2.61 2.79 2.58 1.94 1.90
2.36 2.73 3.36 3.25 3.07 2.93 2.79 2.72 2.60 2.55 2.73 2.90 2.94 2.89 2.96 2.92 2.96 2.97 3.12 3.47 3.81 4.02 4.10 3.85 3.72 3.76 3.71 3.63 3.22 2.86 2.60 2.54 2.45 2.42 2.26 1.93 2.10 2.48 2.85 2.90 2.87 2.02 1.95
2.06 2.43 2.60 2.89 2.79 2.71 2.65 2.71 2.98 2.99 2.97 2.90 2.90 2.82 2.83 2.81 2.86 2.94 3.18 3.48 3.76 3.74 3.76 3.61 3.49 3.41 3.30 3.20 2.97 2.71 2.57 2.43 2.45 2.62 2.74 1.91 1.73 2.46 2.76 2.79 2.57 1.95 1.76
1.88 2.16 2.27 2.63 2.55 2.34 2.49 2.74 3.05 3.20 3.15 3.05 2.92 2.76 2.69 2.79 2.94 3.06 3.04 3.19 3.35 3.26 3.13 3.21 3.35 3.28 3.07 2.82 2.70 2.64 2.59 2.54 2.72 3.03 3.00 2.10 1.63 2.07 2.48 2.43 2.15 1.83 1.64
1.83 2.10 2.44 2.51 2.33 2.20 2.33 2.62 2.93 3.10 3.05 2.98 2.85 2.74 2.79 2.74 2.80 2.86 2.84 2.97 3.05 3.10 3.03 2.95 3.10 3.19 3.00 2.78 2.67 2.65 2.61 2.67 3.00 3.01 2.55 2.40 2.31 2.29 2.33 2.27 2.07 1.85 1.71
1.49 1.82 2.24 2.44 2.31 2.25 2.49 2.64 2.72 2.77 2.73 2.69 2.67 2.72 2.70 2.64 2.68 2.66 2.60 2.67 2.92 2.98 2.72 2.64 2.93 3.15 3.09 2.83 2.64 2.80 2.90 3.01 2.89 2.33 2.16 2.15 2.24 2.38 2.31 2.38 2.31 2.08 1.92
1.34 1.65 2.04 2.42 2.30 2.27 2.39 2.49 2.61 2.71 2.69 2.59 2.54 2.47 2.50 2.60 2.62 2.53 2.34 2.43 2.65 2.64 2.44 2.44 2.75 2.95 2.99 2.84 2.78 3.11 3.13 3.12 2.60 2.16 2.03 2.24 2.08 2.04 2.21 2.45 2.63 2.41 2.08
1.17 1.47 1.77 2.20 2.23 2.16 2.21 2.34 2.53 2.65 2.64 2.53 2.31 2.21 2.29 2.40 2.38 2.29 2.21 2.38 2.37 2.25 2.27 2.37 2.68 2.57 2.70 2.97 3.09 3.38 3.28 2.74 2.08 2.03 1.89 1.95 1.64 1.76 2.14 2.39 2.53 2.38 2.09
1.07 1.21 1.53 1.85 2.05 2.10 2.30 2.37 2.34 2.29 2.21 2.15 2.01 2.07 2.21 2.31 2.20 2.11 2.13 2.26 2.18 2.22 2.33 2.51 2.68 2.48 2.69 3.08 3.21 3.31 3.15 2.62 2.01 2.00 1.78 1.97 1.86 2.03 2.36 2.44 2.37 2.36 2.11
1.30 1.34 1.52 1.67 1.80 1.92 2.07 2.23 2.22 2.16 2.00 1.89 1.87 1.92 2.01 2.11 2.11 2.00 1.98 2.17 2.11 2.19 2.25 2.47 2.58 2.49 2.82 3.09 3.21 3.16 3.00 2.41 1.83 1.83 1.89 1.75 1.95 2.36 2.69 2.67 2.56 2.49 2.33
1.63 1.65 1.58 1.54 1.56 1.74 1.84 1.94 2.17 2.18 2.08 1.98 2.04 2.09 2.09 2.10 1.91 1.90 1.99 2.36 2.33 2.42 2.46 2.61 2.75 2.99 3.10 3.01 3.18 3.08 2.70 2.22 2.11 2.06 2.07 1.82 2.10 2.65 2.92 2.86 2.79 2.81 2.63
1.72 1.79 1.83 1.75 1.57 1.66 1.72 1.95 2.09 1.84 1.95 2.06 2.21 2.07 2.06 2.15 2.12 1.96 2.35 2.66 2.81 3.03 3.10 3.22 3.42 3.31 3.03 3.07 3.52 3.40 2.53 2.36 2.18 2.20 2.40 2.20 2.43 3.01 3.30 3.10 2.97 3.03 2.92
1.84 1.66 1.82 2.07 2.02 2.00 2.07 1.92 1.91 1.94 2.11 2.13 1.97 1.93 2.13 1.88 1.75 1.98 2.31 2.62 2.91 3.23 3.45 3.69 3.82 3.49 3.46 3.70 3.82 3.40 2.64 2.31 2.25 2.09 2.42 2.54 2.75 3.30 3.71 3.50 3.32 3.30 3.25
2.08 1.75 1.75 1.99 2.27 2.28 2.13 2.00 1.88 1.86 1.99 1.99 2.11 1.98 2.13 2.12 2.12 2.34 2.82 2.96 3.18 3.31 3.79 3.89 4.30 4.06 3.71 3.45 3.49 3.30 2.89 2.70 2.45 2.50 2.81 2.47 2.65 3.23 3.87 3.93 3.77 3.58 3.39
2.33 2.10 1.98 1.96 2.24 2.33 2.34 2.18 1.93 2.02 1.99 2.12 2.28 2.19 2.25 2.37 2.68 2.99 3.14 3.50 3.40 3.43 3.76 4.24 4.26 4.54 4.47 4.30 3.98 3.58 3.43 3.16 2.78 2.85 2.96 2.84 2.75 3.04 3.71 4.25 4.18 3.93 3.61
2.66 2.55 2.29 2.13 2.19 2.34 2.42 2.41 2.36 2.29 2.46 2.46 2.53 2.54 2.67 2.90 3.23 3.59 3.67 3.84 3.65 3.64 4.11 4.44 4.50 5.08 4.94 4.70 4.15 3.81 3.56 3.39 3.07 2.92 3.12 3.26 2.87 2.79 3.29 4.14 4.53 4.42 4.20
2.84 2.93 2.84 2.67 2.67 2.83 3.13 3.05 2.77 2.82 2.84 2.93 3.07 3.13 3.11 3.25 3.71 4.04 4.03 3.95 3.96 3.95 4.36 4.64 4.77 4.91 4.61 4.39 4.20 3.97 3.77 3.51 3.07 3.09 3.12 3.32 3.13 2.90 3.21 3.66 4.21 4.45 4.63
2.93 3.32 3.45 3.22 3.41 3.64 3.93 3.90 3.57 3.51 3.41 3.38 3.30 3.34 3.30 3.44 3.76 4.33 4.14 3.99 4.37 4.19 4.47 5.08 5.14 5.04 4.96 4.66 4.39 3.98 3.76 3.59 3.07 3.00 3.03 3.24 3.58 3.10 3.21 3.60 3.90 4.11 4.74
3.06 3.57 3.84 4.00 4.23 4.29 4.41 4.44 4.26 4.10 3.92 3.59 3.56 3.55 3.40 3.45 3.62 4.12 4.05 4.19 4.21 4.51 4.69 4.37 5.10 5.21 5.04 4.72 4.01 3.78 3.39 3.22 3.17 2.87 3.03 3.09 3.48 3.32 3.33 3.40 3.69 3.90 4.67
3.35 3.79 4.36 4.69 4.88 4.66 4.62 4.67 4.43 4.08 3.90 3.65 3.60 3.58 3.37 3.45 3.52 4.07 3.94 3.94 4.01 4.47 4.64 4.60 5.08 5.05 4.70 4.61 3.61 3.41 3.23 2.81 2.81 2.89 2.71 2.93 3.22 2.91 3.15 3.45 3.87 3.45 3.83
3.83 4.13 4.46 4.96 5.30 5.22 5.28 5.17 5.00 4.67 4.44 4.01 3.54 3.17 3.13 3.15 3.41 3.99 3.66 4.08 3.99 4.19 4.30 4.25 4.62 4.78 4.39 4.38 4.29 3.80 3.04 2.57 2.53 2.53 2.58 2.78 2.81 2.94 3.60 4.19 4.34 4.17 3.93
3.64 4.17 4.53 4.57 4.59 4.51 4.76 5.13 5.33 5.26 4.71 4.05 3.66 3.52 3.14 3.09 3.27 3.51 3.86 3.75 3.80 4.03 4.03 4.06 4.41 4.42 3.96 4.07 4.33 4.38 3.59 3.21 2.65 2.06 2.40 2.55 2.67 3.09 3.39 3.60 4.03 4.38 4.52
3.07 3.61 3.78 3.68 3.66 3.59 3.75 4.13 4.43 4.74 4.49 4.17 3.86 3.60 3.18 3.05 3.09 3.28 3.54 3.56 3.61 3.44 3.68 3.92 3.89 3.96 3.89 3.82 3.86 4.33 4.00 3.55 2.98 2.36 2.19 2.31 2.69 3.00 3.06 3.30 3.36 3.71 4.04
2.22 2.47 2.68 2.91 3.06 3.10 3.15 3.36 3.59 3.90 3.97 3.97 3.91 3.56 3.18 2.88 2.86 3.03 3.15 3.15 3.19 3.11 3.41 3.13 3.26 3.60 3.85 3.70 3.59 3.52 3.59 3.73 3.60 2.91 2.39 2.26 2.56 2.72 2.71 2.67 2.97 3.44 3.59
1.96 2.21 2.43 2.75 2.93 3.01 2.97 3.05 3.27 3.61 3.68 3.51 3.39 3.46 3.23 2.94 2.67 2.61 2.83 2.92 2.91 2.82 2.92 2.98 3.34 3.27 3.41 3.46 3.47 3.46 3.57 3.60 3.42 3.23 2.83 2.68 2.61 2.32 2.29 2.47 2.75 3.13 3.32
1.84 2.06 2.30 2.55 2.57 2.68 2.74 2.75 2.80 3.03 3.20 3.07 2.94 2.95 2.80 2.68 2.57 2.47 2.54 2.74 2.65 2.63 2.75 2.87 2.98 2.98 3.07 3.19 3.20 3.22 3.51 3.41 3.32 3.43 3.04 2.85 2.74 2.38 2.31 2.41 2.57 2.87 3.03